Regional Weather Roundup
Issued by NWS Upton, NY

Current Version | Previous Version | Text Only | Print | Product List | Glossary On
Versions: 1 2 3 4 5 6 7 8 9 10 11 12 13 14 15 16 17 18 19 20 21 22 23 24 25 26 27 28 29 30 31 32 33 34 35 36 37 38 39 40 41 42 43 44 45 46 47 48 49 50
000
ASUS41 KOKX 221105
RWROKX

REGIONAL WEATHER ROUNDUP
NATIONAL WEATHER SERVICE NEW YORK NY
700 AM EDT FRI AUG 22 2014

NOTE: "FAIR" INDICATES FEW OR NO CLOUDS BELOW 12,000 FEET WITH NO
SIGNIFICANT WEATHER AND/OR OBSTRUCTIONS TO VISIBILITY.

NYZ071-072-176-178-NJZ106-104-221200-
NEW YORK CITY METRO AREA


CITY           SKY/WX    TMP DP  RH WIND       PRES   REMARKS
CENTRAL PARK   MOCLDY    67  64  90 VRB5      30.04R
LAGUARDIA APRT MOCLDY    68  64  87 E7        30.01R
KENNEDY INTL   MOCLDY    67  65  93 NE6       30.03R
NEWARK/LIBERTY MOCLDY    68  65  90 NE5       30.01R
BRNX BOT. GARD   N/A     64  63  94 S1        30.04S
TETERBORO      CLOUDY    70  64  81 E5        30.01R
$$

NYZ177-179-078>081-221200-
LONG ISLAND NEW YORK

CITY           SKY/WX    TMP DP  RH WIND       PRES   REMARKS
FARMINGDALE    PTCLDY    65  62  90 E7        30.03R
ISLIP          PTCLDY    63  58  83 E5        30.02R
SHIRLEY        MOCLDY    61  58  90 CALM      30.04R
WESTHAMPTON    CLOUDY    65  61  87 NE5       30.05R
MONTAUK POINT    N/A     67  62  84 NE7       30.06R
$$

NYZ052-065-067-221200-
HUDSON VALLEY

CITY           SKY/WX    TMP DP  RH WIND       PRES   REMARKS
WHITE PLAINS   CLOUDY    66  64  93 E3        30.03R
NEWBURGH       NOT AVBL
MONTGOMERY     CLOUDY    65  63  93 CALM      30.03R FOG
POUGHKEEPSIE   CLOUDY    67  64  90 CALM      30.02R
ALBANY         CLOUDY    66  63  90 SE7       30.03R
$$

NJZ001-105-106-008-010-013-015-019>022-104-221200-
NEW JERSEY

CITY           SKY/WX    TMP DP  RH WIND       PRES   REMARKS
NEWARK/LIBERTY MOCLDY    68  65  90 NE5       30.01R
TETERBORO      CLOUDY    70  64  81 E5        30.01R
CALDWELL       CLOUDY    66  63  90 CALM      30.03R
MORRISTOWN     CLOUDY    66  66 100 CALM      30.00F
SOMERVILLE     MOCLDY    64  62  93 CALM      30.00R
LINDEN         CLOUDY    72  68  88 CALM      30.03R
SUSSEX         CLOUDY    66  63  90 CALM        N/A  FOG
ANDOVER          N/A     64  63  96 CALM      30.03R
TRENTON        MOCLDY    66  64  93 NE3       30.01R
MILLVILLE      CLEAR     69  67  93 E5        29.97R
ATLANTIC CITY  PTCLDY    67  67 100 NE3       29.98R
WRIGHTSTOWN    CLOUDY    65  65 100 NE3       29.98S
TOMS RIVER     PTCLDY    64  64 100 CALM      30.00S
BELMAR         PTCLDY    66  63  88 CALM      30.01S
$$

PAZ047>061-062-071-221200-
EASTERN PENNSYLVANIA

CITY           SKY/WX    TMP DP  RH WIND       PRES   REMARKS
PHILADELPHIA   MOCLDY    68  65  90 E9        30.00R
ALLENTOWN      CLOUDY    67  64  90 E6        30.01R
SCRANTON       CLOUDY    67  63  87 E3        30.01R
$$

CTZ002-004>006-009-010-012-RIZ004-006-007-MAZ004-011-015-221200-
SOUTHERN NEW ENGLAND
 IN CT

CITY           SKY/WX    TMP DP  RH WIND       PRES   REMARKS
BRADLEY INTL   MOCLDY    66  62  87 NE7       30.06S
HARTFORD       CLOUDY    66  61  84 E3        30.06R
DANBURY        CLOUDY    65  62  90 E6        30.06R
WTRBRY/OXFORD  MOCLDY    63  55  77 E6        30.08R
BRIDGEPORT     PTCLDY    68  61  78 E10       30.03S
MERIDEN        CLOUDY    64  61  90 N3        30.06R
NEW HAVEN      PTCLDY    65  59  81 NE6       30.05R
CHESTER        PTSUNNY   63  61  94 CALM      30.07R
GROTON         CLOUDY    64  61  90 NE7       30.05R
WILLIMANTIC    CLOUDY    64  58  80 N5        30.08R

 IN RI

CITY           SKY/WX    TMP DP  RH WIND       PRES   REMARKS
PROVIDENCE     CLOUDY    65  62  90 N5        30.08S
BLOCK ISLAND   CLOUDY    66  61  82 NE10      30.06R
WESTERLY       CLOUDY    64  62  93 N5        30.06S

 IN MA

CITY           SKY/WX    TMP DP  RH WIND       PRES   REMARKS
BOSTON         CLOUDY    63  60  90 NW8       30.09S
WORCESTER      CLOUDY    58  57  97 NE6       30.11R VSB 1/2
WESTFIELD      CLOUDY    64  62  93 N6        30.07S
PROVINCETOWN   PTSUNNY   64  63  94 MISG      30.08S
NANTUCKET      PTSUNNY   63  61  93 NE6       30.06R
$$

ANZ330-335-338-340-345-350-353-355-221200-
COASTAL MARINE OBSERVATIONS


STATION/POSITION TIME  SKY/WX   TEMP    WIND        PRES    VSBY  WAVE
                                AIR SEA DIR/SP/G                  HT/PER
                 (UTC)          (F)     (DEG/KT/KT) (MB)    (MI)  (FT/S)
NY HARB ENTRANCE NOT AVBL
4S FIRE IS       NOT AVBL
23SW MTP         1100            67 69              1016.8          3/ 8
HUDSON CANYON    1100            70 72   50/ 12/ 14 1015.2          3/ 8
EXECUTION ROCKS  1100            69 73   90/ 10/ 12   N/A
WESTERN LI SOUND 1100            69     100/ 10/ 14   N/A           1
CENTRAL LI SOUND 1000            68 73   80/ 12/ 14   N/A           1/ 2
EASTERN LI SOUND 1000            67 70   50/ 10/ 14   N/A
ROBBINS REEF     1000            69      70/ 10/ 12   N/A
$$


>>>>>>>>>>>>>>>>>>>>>>>>>>>> KEY <<<<<<<<<<<<<<<<<<<<<<<<<<<
>                                                          <
>     SKY/WX - SKY CONDITION/PRESENT WEATHER               <
>     TMP    - TEMPERATURE IN FAHRENHEIT                   <
>     DP     - DEWPOINT IN FAHRENHEIT                      <
>     RH     - RELATIVE HUMIDITY IN PERCENT                <
>     WIND   - DIRECTION AND SPEED IN MPH                  <
>     PRES   - MEAN SEA LEVEL PRESSURE IN INCHES OF HG     <
>     WCI    - WIND CHILL INDEX                            <
>     VSB    - VISIBILITY IN MILES                         <
>     HX     - HEAT INDEX                                  <
>     TC     - TEMPERATURE IN CELSIUS                      <
>     VRB    - VARIABLE WIND DIRECTION                     <
>                                                          <
>>>>>>>>>>>>>>>>>>>>>>>>>>>> KEY <<<<<<<<<<<<<<<<<<<<<<<<<<<




USA.gov is the U.S. government's official web portal to all federal, state and local government web resources and services.